• In Hungary
  • List of Countries
  • For 7 days
  • Water Temperature
  • Satellite Maps
  • Weather Map
  • News
  • Weather Widgets
  • user-avatar
    Login

    Hourly Weather Irgizly

    Today, 14 November, Wednesday

    Time Temperature Precipitation Wind Pressure Humidity
    00:00 -7°C° 0 mm 1 mps 755 mmHg 53%
    01:00 -7°C° 0 mm 1 mps 755 mmHg 52%
    02:00 -7°C° 0 mm 1 mps 755 mmHg 51%
    03:00 -8°C° 0 mm 1 mps 755 mmHg 51%
    04:00 -8°C° 0 mm 1 mps 754 mmHg 52%
    05:00 -8°C° 0 mm 1 mps 754 mmHg 51%
    06:00 -8°C° 0 mm 1 mps 754 mmHg 51%
    07:00 -8°C° 0 mm 1 mps 754 mmHg 50%
    08:00 -7°C° 0 mm 1 mps 754 mmHg 48%
    09:00 -4°C° 0 mm 1 mps 754 mmHg 45%
    10:00 -3°C° 0 mm 1 mps 754 mmHg 41%
    11:00 -2°C° 0 mm 1 mps 754 mmHg 40%
    12:00 -1°C° 0 mm 1 mps 754 mmHg 38%
    13:00 0°C° 0 mm 1 mps 753 mmHg 36%
    14:00 -1°C° 0 mm 1 mps 753 mmHg 41%
    15:00 -2°C° 0 mm 1 mps 753 mmHg 46%
    16:00 -5°C° 0 mm 0 mps 753 mmHg 53%
    17:00 -5°C° 0 mm 0 mps 753 mmHg 53%
    18:00 -4°C° 0 mm 1 mps 753 mmHg 53%
    19:00 -6°C° 0 mm 1 mps 753 mmHg 53%
    20:00 -6°C° 0 mm 1 mps 753 mmHg 53%
    21:00 -6°C° 0 mm 1 mps 753 mmHg 52%
    22:00 -6°C° 0 mm 1 mps 753 mmHg 51%
    23:00 -6°C° 0 mm 1 mps 753 mmHg 50%

    Tomorrow, 15 November, Thursday

    Time Temperature Precipitation Wind Pressure Humidity
    00:00 -7°C° 0 mm 1 mps 753 mmHg 49%
    01:00 -7°C° 0 mm 1 mps 753 mmHg 49%
    02:00 -7°C° 0 mm 1 mps 753 mmHg 48%
    03:00 -7°C° 0 mm 1 mps 753 mmHg 48%
    04:00 -7°C° 0 mm 1 mps 753 mmHg 47%
    05:00 -7°C° 0 mm 1 mps 753 mmHg 47%
    06:00 -7°C° 0 mm 1 mps 753 mmHg 46%
    07:00 -7°C° 0 mm 1 mps 753 mmHg 46%
    08:00 -6°C° 0 mm 1 mps 753 mmHg 44%
    09:00 -4°C° 0 mm 1 mps 753 mmHg 42%
    10:00 -2°C° 0 mm 1 mps 754 mmHg 41%
    11:00 -1°C° 0 mm 1 mps 754 mmHg 39%
    12:00 0°C° 0 mm 1 mps 754 mmHg 36%
    13:00 +1°C° 0 mm 1 mps 754 mmHg 34%
    14:00 0°C° 0 mm 1 mps 754 mmHg 39%
    15:00 -1°C° 0 mm 1 mps 754 mmHg 43%
    16:00 -2°C° 0 mm 1 mps 754 mmHg 48%
    17:00 -3°C° 0 mm 1 mps 754 mmHg 48%
    18:00 -3°C° 0 mm 1 mps 754 mmHg 49%
    19:00 -4°C° 0 mm 1 mps 754 mmHg 49%
    20:00 -4°C° 0 mm 1 mps 754 mmHg 49%
    21:00 -4°C° 0 mm 1 mps 755 mmHg 49%
    22:00 -4°C° 0 mm 1 mps 755 mmHg 48%
    23:00 -4°C° 0 mm 1 mps 755 mmHg 48%

    Day after tomorrow, 16 November, Friday

    Time Temperature Precipitation Wind Pressure Humidity
    00:00 -6°C° 0 mm 1 mps 755 mmHg 48%
    01:00 -6°C° 0 mm 1 mps 755 mmHg 47%
    02:00 -6°C° 0 mm 1 mps 755 mmHg 47%
    03:00 -6°C° 0 mm 1 mps 755 mmHg 47%
    04:00 -6°C° 0 mm 1 mps 755 mmHg 46%
    05:00 -6°C° 0 mm 1 mps 755 mmHg 46%
    06:00 -6°C° 0 mm 1 mps 755 mmHg 46%
    07:00 -6°C° 0 mm 1 mps 755 mmHg 45%
    08:00 -4°C° 0 mm 1 mps 756 mmHg 43%
    09:00 -4°C° 0 mm 0 mps 756 mmHg 42%
    10:00 -3°C° 0 mm 0 mps 756 mmHg 40%
    11:00 -1°C° 0 mm 1 mps 756 mmHg 39%
    12:00 0°C° 0 mm 1 mps 756 mmHg 37%
    13:00 +1°C° 0 mm 1 mps 755 mmHg 36%
    14:00 0°C° 0 mm 1 mps 755 mmHg 41%
    15:00 -1°C° 0 mm 1 mps 755 mmHg 47%
    16:00 -2°C° 0 mm 1 mps 755 mmHg 52%
    17:00 -3°C° 0 mm 1 mps 755 mmHg 55%
    18:00 -3°C° 0 mm 1 mps 755 mmHg 59%
    19:00 -4°C° 0 mm 1 mps 754 mmHg 62%
    20:00 -4°C° 0 mm 1 mps 754 mmHg 66%
    21:00 -4°C° 0 mm 1 mps 754 mmHg 69%
    22:00 -4°C° 0 mm 1 mps 754 mmHg 73%
    23:00 -4°C° 0 mm 1 mps 753 mmHg 76%

    17 November, Saturday

    Time Temperature Precipitation Wind Pressure Humidity
    00:00 -6°C° 0 mm 1 mps 753 mmHg 78%
    01:00 -6°C° 0 mm 1 mps 753 mmHg 81%
    02:00 -6°C° 0 mm 1 mps 752 mmHg 82%
    03:00 -6°C° 0 mm 1 mps 752 mmHg 82%
    04:00 -6°C° 0 mm 1 mps 752 mmHg 83%
    05:00 -6°C° 0 mm 1 mps 751 mmHg 82%
    06:00 -6°C° 0 mm 1 mps 751 mmHg 81%
    07:00 -6°C° 0 mm 1 mps 751 mmHg 79%
    08:00 -4°C° 0 mm 1 mps 750 mmHg 72%
    09:00 -3°C° 0 mm 1 mps 750 mmHg 65%
    10:00 -2°C° 0 mm 1 mps 749 mmHg 58%
    11:00 -1°C° 0 mm 1 mps 749 mmHg 52%
    12:00 -3°C° 0 mm 2 mps 748 mmHg 46%
    13:00 -2°C° 0 mm 2 mps 748 mmHg 41%
    14:00 -3°C° 0 mm 2 mps 747 mmHg 45%
    15:00 -3°C° 0 mm 2 mps 747 mmHg 48%
    16:00 -4°C° 0 mm 2 mps 747 mmHg 52%
    17:00 -5°C° 0 mm 2 mps 746 mmHg 54%
    18:00 -5°C° 0 mm 2 mps 746 mmHg 56%
    19:00 -4°C° 0 mm 1 mps 746 mmHg 58%
    20:00 -4°C° 0 mm 1 mps 745 mmHg 59%
    21:00 -4°C° 0 mm 1 mps 745 mmHg 60%
    22:00 -4°C° 0 mm 1 mps 745 mmHg 61%
    23:00 -4°C° 0 mm 1 mps 744 mmHg 61%

    18 November, Sunday

    Time Temperature Precipitation Wind Pressure Humidity
    00:00 -4°C° 0 mm 1 mps 744 mmHg 62%
    01:00 -4°C° 0 mm 1 mps 744 mmHg 63%
    02:00 -4°C° 0 mm 1 mps 744 mmHg 63%
    03:00 -4°C° 0 mm 1 mps 744 mmHg 63%
    04:00 -4°C° 0 mm 1 mps 744 mmHg 64%
    05:00 -4°C° 0 mm 1 mps 743 mmHg 64%
    06:00 -6°C° 0 mm 1 mps 743 mmHg 64%
    07:00 -6°C° 0 mm 1 mps 743 mmHg 65%
    08:00 -4°C° 0 mm 1 mps 743 mmHg 61%
    09:00 -3°C° 0 mm 1 mps 743 mmHg 56%
    10:00 -2°C° 0 mm 1 mps 743 mmHg 52%
    11:00 -1°C° 0 mm 1 mps 743 mmHg 49%
    12:00 -1°C° 0 mm 1 mps 743 mmHg 46%
    13:00 0°C° 0 mm 1 mps 743 mmHg 43%
    14:00 -1°C° 0 mm 1 mps 744 mmHg 46%
    15:00 -1°C° 0 mm 1 mps 744 mmHg 49%
    16:00 -2°C° 0 mm 1 mps 744 mmHg 53%
    17:00 -3°C° 0 mm 1 mps 744 mmHg 52%
    18:00 -3°C° 0 mm 1 mps 744 mmHg 52%
    19:00 -4°C° 0 mm 0 mps 744 mmHg 52%
    20:00 -5°C° 0 mm 0 mps 744 mmHg 51%
    21:00 -5°C° 0 mm 0 mps 744 mmHg 50%
    22:00 -5°C° 0 mm 0 mps 744 mmHg 49%
    23:00 -5°C° 0 mm 0 mps 744 mmHg 49%

    19 November, Monday

    Time Temperature Precipitation Wind Pressure Humidity
    00:00 -5°C° 0 mm 0 mps 744 mmHg 49%
    01:00 -4°C° 0 mm 1 mps 744 mmHg 49%
    02:00 -4°C° 0 mm 1 mps 744 mmHg 48%
    03:00 -4°C° 0 mm 1 mps 744 mmHg 48%
    04:00 -4°C° 0 mm 1 mps 745 mmHg 48%
    05:00 -4°C° 0 mm 1 mps 745 mmHg 48%
    06:00 -3°C° 0 mm 1 mps 745 mmHg 48%
    07:00 -3°C° 0 mm 1 mps 745 mmHg 49%
    08:00 -3°C° 0 mm 1 mps 745 mmHg 48%
    09:00 -2°C° 0 mm 1 mps 745 mmHg 47%
    10:00 -1°C° 0 mm 1 mps 746 mmHg 46%
    11:00 0°C° 0 mm 1 mps 746 mmHg 46%
    12:00 +1°C° 0 mm 1 mps 746 mmHg 45%
    13:00 +2°C° 0 mm 1 mps 746 mmHg 45%
    14:00 +1°C° 0 mm 1 mps 746 mmHg 49%
    15:00 0°C° 0 mm 1 mps 746 mmHg 53%
    16:00 -1°C° 0 mm 1 mps 746 mmHg 58%
    17:00 -1°C° 0 mm 1 mps 746 mmHg 61%
    18:00 -1°C° 0 mm 1 mps 746 mmHg 64%
    19:00 -2°C° 0 mm 1 mps 746 mmHg 68%
    20:00 -2°C° 0 mm 1 mps 746 mmHg 71%
    21:00 -2°C° 0 mm 1 mps 745 mmHg 75%
    22:00 -2°C° 0 mm 1 mps 745 mmHg 78%
    23:00 -2°C° 0 mm 1 mps 746 mmHg 81%
    Show more